User: anonymous   Login
Location: Unspecified
(0.0000°N, 0.0000°E)
Time: 02:59:02
(UTC+00:00)
Language:

Ayame 2 - Orbit

View from above orbital plane
View from above orbital plane
View from above satellite
View from above satellite

Ground track
Ground track

The orbit data is extracted from the following two-line orbital elements,

1 11715U 80018A   18171.59791007 -.00000121 +00000-0 +00000-0 0  9993
2 11715 008.0429 285.4454 4432791 187.5417 208.6833 01.75494630183804
Epoch (UTC): 20 June 2018 14:20:59
Eccentricity: 0.4432791
inclination: 8.0429°
perigee height: 9785 km
apogee height: 35524 km
right ascension of ascending node: 285.4454°
argument of perigee: 187.5417°
revolutions per day: 1.75494630
mean anomaly at epoch: 208.6833°
orbit number at epoch: 18380

The dashed part of the orbit path shows where the satellite is in the earth's shadow,  

DLR